DLH6P LKPR-EDDF

Flight info

Callsign DLH6P
Flight time 0h 39m
Altitude 30000
Route BALTU DCT DONAD DCT RAPET T170 GAPLA T178 KERAX KERAX5D
Aircraft A320/M-SDE2E3FGIJ1LORWXYZ/HB1

Departure

Time 2026-04-18 07:20
Airport Václav Havel Airport Prague (LKPR)

Arrival

Time 2026-04-18 08:00
Airport Frankfurt Main Airport (EDDF)
Time Latitude Longitude Altitude Speed Heading
2026-04-18 07:20 50.18991 14.07533 7523 ft 267 kts 308°
2026-04-18 07:20 50.20109 14.05201 8461 ft 269 kts 308°
2026-04-18 07:21 50.21220 14.02829 9407 ft 273 kts 303°
2026-04-18 07:21 50.22002 14.00150 10294 ft 279 kts 288°
2026-04-18 07:21 50.22306 13.97087 10843 ft 298 kts 272°
2026-04-18 07:21 50.22271 13.93721 11140 ft 322 kts 271°
2026-04-18 07:22 50.22228 13.90124 11578 ft 338 kts 271°
2026-04-18 07:22 50.22182 13.86426 12282 ft 344 kts 270°
2026-04-18 07:22 50.22131 13.82663 13041 ft 349 kts 270°
2026-04-18 07:22 50.22075 13.78849 13806 ft 353 kts 270°
2026-04-18 07:23 50.22016 13.74996 14500 ft 357 kts 270°
2026-04-18 07:23 50.21954 13.71153 15198 ft 360 kts 270°
2026-04-18 07:23 50.21891 13.67238 15901 ft 363 kts 270°
2026-04-18 07:23 50.21826 13.63285 16606 ft 365 kts 270°
2026-04-18 07:24 50.21759 13.59313 17310 ft 368 kts 270°
2026-04-18 07:24 50.21689 13.55306 17990 ft 370 kts 270°
2026-04-18 07:24 50.21620 13.51273 18632 ft 373 kts 270°
2026-04-18 07:24 50.21551 13.47200 19203 ft 376 kts 270°
2026-04-18 07:25 50.21484 13.43161 19753 ft 379 kts 270°
2026-04-18 07:25 50.21412 13.39033 20298 ft 382 kts 270°
2026-04-18 07:25 50.21337 13.34873 20844 ft 385 kts 270°
2026-04-18 07:25 50.21257 13.30680 21367 ft 388 kts 270°
2026-04-18 07:26 50.21173 13.26448 21908 ft 391 kts 270°
2026-04-18 07:26 50.21112 13.23391 22281 ft 393 kts 270°
2026-04-18 07:28 50.21060 13.20778 22599 ft 395 kts 270°
2026-04-18 07:28 50.20977 13.16474 23103 ft 398 kts 270°
2026-04-18 07:28 50.20893 13.12141 23608 ft 401 kts 270°
2026-04-18 07:29 50.20807 13.07822 24044 ft 404 kts 270°
2026-04-18 07:29 50.20715 13.03433 24458 ft 406 kts 270°
2026-04-18 07:29 50.20622 12.99010 24892 ft 408 kts 270°
2026-04-18 07:29 50.20528 12.94572 25312 ft 410 kts 270°
2026-04-18 07:30 50.20432 12.90112 25739 ft 412 kts 270°
2026-04-18 07:30 50.20334 12.85635 26166 ft 413 kts 270°
2026-04-18 07:30 50.20235 12.81252 26579 ft 415 kts 270°
2026-04-18 07:30 50.20129 12.76746 26991 ft 417 kts 270°
2026-04-18 07:31 50.20021 12.72212 27403 ft 419 kts 270°
2026-04-18 07:31 50.19916 12.67720 27803 ft 420 kts 270°
2026-04-18 07:31 50.19810 12.63153 28203 ft 422 kts 270°
2026-04-18 07:31 50.19700 12.58565 28564 ft 424 kts 269°
2026-04-18 07:32 50.19583 12.53952 28925 ft 426 kts 269°
2026-04-18 07:32 50.19463 12.49328 29280 ft 428 kts 269°
2026-04-18 07:32 50.19340 12.44684 29638 ft 429 kts 269°
2026-04-18 07:32 50.19217 12.40028 30019 ft 430 kts 269°
2026-04-18 07:33 50.19256 12.35381 30201 ft 427 kts 276°
2026-04-18 07:33 50.19783 12.30875 30210 ft 418 kts 286°
2026-04-18 07:33 50.21702 12.22418 30207 ft 415 kts 290°
2026-04-18 07:34 50.23657 12.13928 30217 ft 415 kts 289°
2026-04-18 07:34 50.25587 12.05440 30213 ft 415 kts 289°
2026-04-18 07:35 50.27508 11.97001 30224 ft 415 kts 289°
2026-04-18 07:35 50.29460 11.88516 30211 ft 415 kts 289°
2026-04-18 07:36 50.31414 11.80026 30225 ft 415 kts 289°
2026-04-18 07:36 50.33351 11.71522 30211 ft 415 kts 289°
2026-04-18 07:37 50.35261 11.63067 30198 ft 414 kts 289°
2026-04-18 07:37 50.37180 11.54559 30192 ft 414 kts 289°
2026-04-18 07:38 50.39090 11.46055 30184 ft 414 kts 288°
2026-04-18 07:38 50.40998 11.37535 30173 ft 414 kts 288°
2026-04-18 07:39 50.42751 11.29003 30163 ft 414 kts 279°
2026-04-18 07:39 50.42858 11.24501 29898 ft 415 kts 264°
2026-04-18 07:39 50.42484 11.19998 29618 ft 417 kts 263°
2026-04-18 07:40 50.42083 11.15493 29344 ft 418 kts 263°
2026-04-18 07:40 50.41671 11.10972 29066 ft 420 kts 263°
2026-04-18 07:40 50.41254 11.06433 28789 ft 421 kts 263°
2026-04-18 07:40 50.40837 11.01889 28520 ft 422 kts 263°
2026-04-18 07:41 50.40425 10.97398 28254 ft 422 kts 263°
2026-04-18 07:41 50.40010 10.92848 27988 ft 421 kts 263°
2026-04-18 07:41 50.39596 10.88305 27722 ft 420 kts 263°
2026-04-18 07:41 50.39182 10.83785 27468 ft 419 kts 263°
2026-04-18 07:42 50.38768 10.79280 27203 ft 418 kts 263°
2026-04-18 07:42 50.38349 10.74776 26935 ft 417 kts 262°
2026-04-18 07:42 50.37917 10.70294 26675 ft 415 kts 262°
2026-04-18 07:42 50.37437 10.65846 26424 ft 414 kts 261°
2026-04-18 07:43 50.36917 10.61482 26179 ft 412 kts 260°
2026-04-18 07:43 50.36377 10.57079 25931 ft 411 kts 260°
2026-04-18 07:43 50.35862 10.52684 25662 ft 411 kts 261°
2026-04-18 07:43 50.35368 10.48240 24714 ft 417 kts 261°
2026-04-18 07:44 50.34893 10.43776 24152 ft 412 kts 262°
2026-04-18 07:44 50.34432 10.39397 23661 ft 404 kts 262°
2026-04-18 07:44 50.33977 10.35080 22991 ft 400 kts 262°
2026-04-18 07:44 50.33523 10.30803 22347 ft 396 kts 261°
2026-04-18 07:45 50.33066 10.26573 21731 ft 392 kts 261°
2026-04-18 07:45 50.32614 10.22440 21140 ft 389 kts 261°
2026-04-18 07:45 50.32158 10.18291 20551 ft 385 kts 261°
2026-04-18 07:45 50.31704 10.14184 19988 ft 382 kts 261°
2026-04-18 07:46 50.31251 10.10109 19435 ft 379 kts 261°
2026-04-18 07:46 50.30798 10.06042 18630 ft 383 kts 261°
2026-04-18 07:46 50.30340 10.01956 18101 ft 378 kts 261°
2026-04-18 07:46 50.29888 9.97942 17617 ft 373 kts 261°
2026-04-18 07:47 50.29441 9.93966 17140 ft 369 kts 261°
2026-04-18 07:47 50.29000 9.90025 16674 ft 367 kts 261°
2026-04-18 07:47 50.28567 9.86166 16226 ft 364 kts 260°
2026-04-18 07:47 50.28128 9.82276 15769 ft 362 kts 260°
2026-04-18 07:48 50.27689 9.78415 15310 ft 360 kts 260°
2026-04-18 07:48 50.27251 9.74574 14875 ft 358 kts 260°
2026-04-18 07:48 50.26819 9.70762 14443 ft 356 kts 260°
2026-04-18 07:48 50.26387 9.66964 14015 ft 354 kts 260°
2026-04-18 07:49 50.25954 9.63195 13537 ft 351 kts 260°
2026-04-18 07:49 50.25520 9.59453 13062 ft 349 kts 260°
2026-04-18 07:49 50.25092 9.55783 12585 ft 346 kts 259°
2026-04-18 07:49 50.24660 9.52095 12120 ft 344 kts 259°
2026-04-18 07:50 50.24229 9.48432 11667 ft 342 kts 259°
2026-04-18 07:50 50.23803 9.44797 11217 ft 340 kts 259°
2026-04-18 07:50 50.23312 9.41212 10773 ft 335 kts 252°
2026-04-18 07:50 50.22541 9.37805 10377 ft 328 kts 250°
2026-04-18 07:51 50.21782 9.34511 10197 ft 316 kts 250°
2026-04-18 07:51 50.21056 9.31354 10057 ft 304 kts 250°
2026-04-18 07:51 50.20365 9.28354 9801 ft 296 kts 250°
2026-04-18 07:51 50.19662 9.25307 9208 ft 299 kts 250°
2026-04-18 07:52 50.18958 9.22257 8708 ft 299 kts 250°
2026-04-18 07:52 50.18252 9.19209 8214 ft 296 kts 250°
2026-04-18 07:52 50.17565 9.16252 7721 ft 283 kts 249°
2026-04-18 07:52 50.16908 9.13427 7266 ft 272 kts 249°
2026-04-18 07:53 50.16258 9.10702 6813 ft 267 kts 248°
2026-04-18 07:53 50.15621 9.08002 6358 ft 268 kts 249°
2026-04-18 07:53 50.14999 9.05325 6050 ft 259 kts 249°
2026-04-18 07:53 50.14391 9.02717 5799 ft 252 kts 249°
2026-04-18 07:54 50.13799 9.00182 5545 ft 246 kts 249°
2026-04-18 07:54 50.13220 8.97706 5295 ft 241 kts 249°
2026-04-18 07:54 50.12655 8.95291 5122 ft 232 kts 249°
2026-04-18 07:54 50.12109 8.92959 4912 ft 226 kts 248°
2026-04-18 07:55 50.11573 8.90676 4634 ft 224 kts 249°
2026-04-18 07:55 50.11041 8.88409 4331 ft 220 kts 249°
2026-04-18 07:55 50.10531 8.86238 4048 ft 213 kts 249°
2026-04-18 07:55 50.10030 8.84108 3770 ft 206 kts 249°
2026-04-18 07:56 50.09546 8.82056 3534 ft 199 kts 249°
2026-04-18 07:56 50.09074 8.80053 3257 ft 194 kts 250°
2026-04-18 07:56 50.08614 8.78105 2979 ft 189 kts 250°
2026-04-18 07:56 50.08164 8.76198 2739 ft 186 kts 250°
2026-04-18 07:57 50.07724 8.74335 2488 ft 182 kts 250°
2026-04-18 07:57 50.07441 8.72441 2207 ft 179 kts 263°
2026-04-18 07:57 50.07262 8.70535 1933 ft 176 kts 261°
2026-04-18 07:57 50.06910 8.68775 1679 ft 168 kts 251°
2026-04-18 07:58 50.06158 8.65636 1342 ft 144 kts 250°
2026-04-18 07:58 50.05800 8.64202 1158 ft 141 kts 250°
2026-04-18 07:58 50.05453 8.62778 922 ft 140 kts 251°
2026-04-18 07:59 50.05137 8.61349 749 ft 140 kts 251°
2026-04-18 07:59 50.04809 8.59924 588 ft 141 kts 250°
2026-04-18 07:59 50.04464 8.58505 403 ft 140 kts 250°
2026-04-18 07:59 50.04150 8.57180 369 ft 112 kts 250°
2026-04-18 08:00 50.03939 8.56294 358 ft 63 kts 249°
2026-04-18 08:00 50.03886 8.55964 351 ft 20 kts 267°
2026-04-18 08:00 50.03898 8.55749 352 ft 17 kts 278°
2026-04-18 08:00 50.03926 8.55631 357 ft 10 kts 324°
2026-04-18 08:01 50.03976 8.55661 354 ft 10 kts 56°
2026-04-18 08:01 50.04010 8.55787 351 ft 16 kts 69°
2026-04-18 08:01 50.04055 8.55975 358 ft 21 kts 70°
2026-04-18 08:01 50.04107 8.56195 357 ft 22 kts 70°
2026-04-18 08:02 50.04162 8.56430 358 ft 24 kts 70°
2026-04-18 08:02 50.04217 8.56658 364 ft 18 kts 70°
2026-04-18 08:02 50.04273 8.56802 359 ft 16 kts 28°
2026-04-18 08:02 50.04386 8.56842 364 ft 18 kts
2026-04-18 08:03 50.04512 8.56876 359 ft 15 kts 13°
2026-04-18 08:03 50.04606 8.56911 356 ft 12 kts 13°
2026-04-18 08:03 50.04657 8.56959 363 ft 7 kts 81°
2026-04-18 08:03 50.04653 8.57036 356 ft 6 kts 90°
2026-04-18 08:04 50.04653 8.57058 356 ft 0 kts 90°
2026-04-18 08:04 50.04653 8.57059 356 ft 0 kts 90°